Providence, RI

8:55 AM EDT on June 24, 2017 (GMT -0400)
Green State

Weather History for KPVD - January, 2013

Change the Weather History Date:

Thursday, January 10, 2013

  Actual Average Record
Temperature  
Mean Temperature 41 °F 29 °F  
Max Temperature 47 °F 37 °F 59 °F (2016)
Min Temperature 34 °F 21 °F -1 °F (2004)
Degree Days  
Heating Degree Days 24 36  
Month to date heating degree days 340 356  
Since 1 July heating degree days 2180 2383  
Cooling Degree Days 0 0  
Month to date cooling degree days 0 0  
Year to date cooling degree days 0 0  
Moisture  
Dew Point 22 °F    
Average Humidity 48    
Maximum Humidity 62    
Minimum Humidity 34    
Precipitation  
Precipitation 0.00 in 0.12 in 2.20 in (1977)
Month to date precipitation 0.03 1.22  
Year to date precipitation 0.03 1.22  
Snow  
Snow 0.00 in 0.40 in 6.80 in (1942)
Month to date snowfall 0.4 3.0  
Since 1 July snowfall 11.0 13.2  
Snow Depth 0.00 in    
Sea Level Pressure  
Sea Level Pressure 30.35 in    
Wind  
Wind Speed 10 mph (WNW)    
Max Wind Speed 35 mph    
Max Gust Speed 47 mph    
Visibility 10 miles    
Events      
T = Trace of Precipitation, MM = Missing Value Source: NWS Daily Summary

Daily Weather History Graph

Daily Weather History Graph

Search for Another Location

Airport or City:

Trip Planner

Search our weather history database for the weather conditions in past years. The results will help you decide how hot, cold, wet, or windy it might be!

Date:

Astronomy

Jan. 10, 2013 Rise Set
Actual Time 7:12 AM EST 4:34 PM EST
Civil Twilight 6:41 AM EST 5:05 PM EST
Nautical Twilight 6:06 AM EST 5:40 PM EST
Astronomical Twilight 5:33 AM EST 6:13 PM EST
Moon 5:49 AM EST (1/10) 3:39 PM EST (1/10)
Length of Visible Light 10h 24m
Length of Day
9h 22m
Waning Crescent, 2% of the Moon is Illuminated
Jan 10
Waning Crescent
Jan 11
New
Jan 18
First Quarter
Jan 26
Full
Feb 3
Last Quarter

Hourly Weather History & Observations

Time (EST) Temp. Windchill Dew Point Humidity Pressure Visibility Wind Dir Wind Speed Gust Speed Precip Events Conditions
12:51 AM 43.0 °F 37.7 °F 30.0 °F 60% 30.11 in 10.0 mi West 9.2 mph - N/A   Partly Cloudy
1:51 AM 43.0 °F 37.2 °F 26.1 °F 51% 30.12 in 10.0 mi West 10.4 mph - N/A   Partly Cloudy
2:51 AM 45.0 °F 35.8 °F 23.0 °F 42% 30.17 in 10.0 mi NW 26.5 mph 46.0 mph N/A   Partly Cloudy
3:51 AM 42.1 °F 34.2 °F 23.0 °F 47% 30.19 in 10.0 mi WNW 16.1 mph 23.0 mph N/A   Partly Cloudy
4:51 AM 41.0 °F 35.2 °F 24.1 °F 51% 30.22 in 10.0 mi NW 9.2 mph - N/A   Partly Cloudy
5:51 AM 41.0 °F 33.9 °F 23.0 °F 49% 30.26 in 10.0 mi WNW 12.7 mph 25.3 mph N/A   Clear
6:51 AM 39.0 °F 34.0 °F 21.9 °F 50% 30.30 in 10.0 mi WNW 6.9 mph - N/A   Scattered Clouds
7:51 AM 39.0 °F 32.8 °F 21.9 °F 50% 30.33 in 10.0 mi West 9.2 mph - N/A   Partly Cloudy
8:51 AM 39.9 °F 33.4 °F 21.9 °F 49% 30.37 in 10.0 mi WNW 10.4 mph 18.4 mph N/A   Scattered Clouds
9:51 AM 43.0 °F 36.8 °F 21.9 °F 43% 30.38 in 10.0 mi WNW 11.5 mph 20.7 mph N/A   Partly Cloudy
10:51 AM 44.1 °F 36.8 °F 21.0 °F 40% 30.38 in 10.0 mi NW 16.1 mph 24.2 mph N/A   Scattered Clouds
11:51 AM 46.0 °F 39.9 °F 21.9 °F 39% 30.36 in 10.0 mi NW 13.8 mph 24.2 mph N/A   Partly Cloudy
12:51 PM 46.0 °F 39.3 °F 19.9 °F 35% 30.36 in 10.0 mi NW 16.1 mph 23.0 mph N/A   Partly Cloudy
1:51 PM 46.9 °F - 19.9 °F 34% 30.38 in 10.0 mi NW 15.0 mph 24.2 mph N/A   Partly Cloudy
2:51 PM 46.9 °F - 21.0 °F 36% 30.39 in 10.0 mi WNW 11.5 mph 19.6 mph N/A   Partly Cloudy
3:51 PM 46.0 °F 41.9 °F 21.0 °F 37% 30.41 in 10.0 mi NW 8.1 mph - N/A   Scattered Clouds
4:51 PM 43.0 °F 40.3 °F 21.0 °F 42% 30.44 in 10.0 mi NNW 4.6 mph - N/A   Scattered Clouds
5:51 PM 41.0 °F 36.4 °F 21.0 °F 45% 30.45 in 10.0 mi WNW 6.9 mph - N/A   Partly Cloudy
6:51 PM 39.2 °F 35.0 °F 21.2 °F 49% 30.47 in 10.0 mi WNW 5.8 mph - N/A   Clear
7:51 PM 37.0 °F 34.5 °F 21.0 °F 52% 30.50 in 10.0 mi West 3.5 mph - N/A   Clear
8:51 PM 36.0 °F 30.3 °F 21.9 °F 57% 30.51 in 10.0 mi West 6.9 mph - N/A   Clear
9:51 PM 37.0 °F 34.5 °F 21.0 °F 52% 30.53 in 10.0 mi North 3.5 mph - N/A   Clear
10:51 PM 35.1 °F 30.1 °F 21.9 °F 59% 30.53 in 10.0 mi NNW 5.8 mph - N/A   Scattered Clouds
11:51 PM 34.0 °F 28.8 °F 21.0 °F 59% 30.53 in 10.0 mi North 5.8 mph - N/A   Partly Cloudy